Location: Fort Worth, Tx
(32.7431°N, 97.3695°W)
Time: 20:13:56
(UTC-04:00)

Max Valier Satellite - Pass Details

Date: 07 April 2023
Orbit: 444 x 458 km, 97.2° (Epoch: 04 June)

Event Time Altitude Azimuth Distance (km) Brightness Sun altitude
Rises 11:09:32 0° 358° (N) 2,510 ? 36.6°
Reaches altitude 10° 11:11:45 10° 347° (NNW) 1,633 ? 37.0°
Drops below altitude 10° 11:17:51 10° 225° (SW) 1,628 ? 38.2°
Enters shadow 11:51:56 -70° 180° (S) 12,472 ? 44.9°
Exits shadow 12:15:56 -59° 33° (NNE) 11,435 ? 49.3°
Maximum altitude 21:42:30 37° 75° (ENE) 716 ? -10.8°
